Hourly Weather Roundup
Issued by NWS Central Illinois

Home | Current Version | Previous Version | Text Only | Print | Product List | Glossary On
Versions: 1 2 3 4 5 6 7 8 9 10 11 12 13 14 15 16 17 18 19 20 21 22 23 24 25 26 27 28 29 30 31 32 33 34 35 36 37 38 39 40 41 42 43 44 45 46 47 48 49 50
000
NZUS43 KILX 270010
HWRILX

Area Weather Roundup
National Weather Service Lincoln IL
700 PM CDT WED JUL 26 2017

NOTE:  "FAIR" indicates few or no clouds below 12,000 feet, with
       no sigificant weather and/or obstructions to visibility.


CITY           SKY/WX    TMP DP  RH WIND       PRES   REMARKS
Bloomington    CLOUDY    83  74  74 S6        29.97F HX  89
6HR MIN TEMP:  83; 6HR MAX TEMP:  87;

Champaign      MOSUNNY   83  77  82 S6        29.98R HX  92
6HR MIN TEMP:  83; 6HR MAX TEMP:  88;

Danville       CLOUDY    81  75  83 E3        29.96S HX  86
6HR MIN TEMP:  81; 6HR MAX TEMP:  85;

Decatur        CLOUDY    86  75  69 S5        29.96S HX  95
6HR MIN TEMP:  86; 6HR MAX TEMP:  89;

Effingham      CLOUDY    85  75  70 S5        29.99S HX  94
6HR MIN TEMP:  85; 6HR MAX TEMP:  93;

Flora          CLOUDY    83  74  74 S6        29.99R HX  90
6HR MIN TEMP:  77; 6HR MAX TEMP:  95; 6HR PCP:  0.33;

Galesburg      TSTM      71  71  98 SW10      29.98R
6HR MIN TEMP:  71; 6HR MAX TEMP:  87; 6HR PCP:  0.46;

Jacksonville   DRIZZLE   84  76  79 CALM      29.94S HX  93
6HR MIN TEMP:  84; 6HR MAX TEMP:  90;

Lacon          CLOUDY    81  76  85 SE5       29.93S HX  88
6HR MIN TEMP:  81; 6HR MAX TEMP:  86;

Lawrenceville  CLOUDY    78  73  84 W3        29.98F HX  81
6HR MIN TEMP:  78; 6HR MAX TEMP:  90; 6HR PCP: TRACE;

Litchfield     PTSUNNY   87  77  72 SE3       29.96F HX  99
6HR MIN TEMP:  86; 6HR MAX TEMP:  90;

$$


CITY           SKY/WX    TMP DP  RH WIND       PRES   REMARKS
Lincoln        CLOUDY    85  80  85 SE3       29.94F HX  98
6HR MIN TEMP:  85; 6HR MAX TEMP:  91;

Macomb         TSTM      73  71  92 SW9G35    30.00R
6HR MIN TEMP:  73; 6HR MAX TEMP:  88; 6HR PCP:  0.01;

Mattoon        MOSUNNY   85  79  82 S3        29.97R HX  98
6HR MIN TEMP:  85; 6HR MAX TEMP:  88;

Mt Carmel AP   CLOUDY    80  72  78 W6        29.98F HX  83
6HR MIN TEMP:  78; 6HR MAX TEMP:  92;

Olney-Noble AP CLOUDY    81  75  83 SE6       29.99F HX  87
Paris AP       CLOUDY    83  78  86 SE3       29.99R HX  92
6HR MIN TEMP:  83; 6HR MAX TEMP:  87;

Peoria         LGT RAIN  84  78  82 SE5       29.94S HX  95
6HR MIN TEMP:  83; 6HR MAX TEMP:  86; 6HR PCP: TRACE;

Pontiac        CLOUDY    80  78  94 SE6       29.96S HX  88
6HR MIN TEMP:  80; 6HR MAX TEMP:  85;

Rantoul        CLOUDY    85  78  80 SE6       29.97S HX  96
6HR MIN TEMP:  85; 6HR MAX TEMP:  88;

Robinson       PTSUNNY   82  73  74 SW10      29.98F HX  86
6HR MIN TEMP:  82; 6HR MAX TEMP:  89;

Springfield    CLOUDY    87  79  76 S5        29.94F HX 101
6HR MIN TEMP:  87; 6HR MAX TEMP:  93;

Taylorville    CLOUDY    86  77  75 SE6       29.96S HX  97
6HR MIN TEMP:  85; 6HR MAX TEMP:  91;

$$

...REGIONAL REPORTS...


CITY           SKY/WX    TMP DP  RH WIND       PRES   REMARKS
Chicago O`Hare CLOUDY    81  71  71 S8        29.96F HX  85
Kankakee       CLOUDY    81  73  78 SE6       29.97F HX  85
Moline         TSTM      74  70  87 NW7       29.93S
Mount Sterling CLOUDY    79  74  83 CALM      29.95S HX  83
Mount Vernon   CLOUDY    82  76  81 SE3       29.98S HX  89
Pittsfield     LGT RAIN  85  78  80 W3        29.96S HX  97
Quincy         CLOUDY    80  74  81 W5        29.95S HX  85
Rockford       CLOUDY    82  74  76 SE8       29.96S HX  88
$$


CITY           SKY/WX    TMP DP  RH WIND       PRES   REMARKS
Burlington     CLOUDY    75  74  96 E3        29.95S
Cedar Rapids   PTSUNNY   77  77 100 SE7       29.94
Des Moines     CLOUDY    78  71  79 SW8       29.96S HX  80
Kirksville     CLOUDY    80  73  79 CALM      29.99S HX  84
Ottumwa        CLOUDY    81  72  74 W3        29.96R HX  85
St Louis       CLOUDY    93  75  55 E10       29.95F HX 104
$$


CITY           SKY/WX    TMP DP  RH WIND       PRES   REMARKS
Terre Haute    CLOUDY    86  76  71 SE6       29.98S HX  96
Evansville     CLOUDY    79  72  79 CALM      30.00S HX  82
Indianapolis   CLOUDY    81  71  71 SE8       30.00F HX  85
Lafayette      CLOUDY    80  73  79 SE3       29.98F HX  84
Madison        CLOUDY    74  72  93 SE7       29.95S
Milwaukee      CLOUDY    76  70  82 E5        29.98R
$$






USA.gov is the U.S. government's official web portal to all federal, state and local government web resources and services.